Location: Shenandoah County Park
(38.9356°N, 78.4524°W)
Time: 06:00:33
(UTC-04:00)

Vanguard 1 Rocket - Pass Details

Date: 14 February 2023
Orbit: 652 x 4223 km, 34.3° (Epoch: 26 March)

Event Time Altitude Azimuth Distance (km) Brightness Sun altitude
Rises 13:55:22 0° 276° (W) 4,427 11.2 34.3°
Reaches altitude 10° 13:57:47 10° 271° (W) 3,762 11.0 34.1°
Maximum altitude 14:07:54 58° 196° (SSW) 2,704 11.2 33.2°
Drops below altitude 10° 14:27:23 10° 125° (SE) 6,804 11.9 31.1°
Sets 14:33:40 0° 122° (ESE) 8,173 12.2 30.4°
